Theta_e
297 291 291 294 299 303 307 309 309 317 326 324 325 334 339 344 350 353 354 356 358 362 362 361 360 359 358 358 357 358 358 359
294 292 295 298 300 303 306 309 310 319 319 327 335 335 344 348 352 352 353 353 360 362 361 360 360 359 358 358 358 358 358 359
290 293 296 301 304 303 304 306 308 318 316 323 330 346 348 348 351 351 352 353 358 361 361 360 360 359 359 358 358 359 359 359
288 293 298 300 303 304 304 306 311 316 322 322 341 345 347 349 348 352 351 355 356 361 361 360 359 359 359 358 358 359 359 359
289 295 297 300 303 301 303 309 311 324 319 322 340 346 347 347 349 351 354 355 356 356 358 360 359 358 358 358 358 358 358 359
291 292 294 303 303 303 306 310 317 321 322 321 337 346 347 348 349 352 354 353 353 354 355 354 355 359 358 358 358 357 358 358
291 293 295 303 301 307 312 310 312 325 329 338 344 347 345 345 346 348 351 351 351 352 353 353 353 355 358 357 358 358 357 357
296 298 298 301 305 305 306 307 308 326 335 339 342 342 340 340 340 343 345 349 348 350 350 353 355 353 352 353 353 351 351 351
298 301 302 301 300 307 303 303 309 320 330 334 336 337 337 340 341 341 345 346 348 348 349 349 352 350 352 351 350 350 349 348
299 301 301 301 304 305 308 306 318 321 333 334 333 335 335 335 337 340 342 345 347 346 346 348 351 348 349 350 348 348 349 347
299 300 297 301 301 302 304 311 318 323 330 332 333 334 336 336 337 338 336 339 343 345 347 347 346 346 348 348 348 347 346 346
296 297 297 297 297 300 305 310 314 321 323 327 327 331 334 335 335 336 337 338 338 341 341 341 345 343 345 347 347 346 345 346
295 294 294 297 296 296 307 309 308 318 321 323 326 327 329 334 335 337 338 340 339 339 339 340 341 342 342 343 344 343 344 344
288 293 295 297 289 301 305 307 307 310 318 322 322 324 324 326 331 337 339 339 340 341 340 339 339 339 339 340 340 341 340 340
286 292 293 295 289 297 305 306 305 307 311 315 316 320 328 328 328 335 337 339 340 341 340 341 341 340 339 338 339 339 339 338
285 289 291 291 292 298 302 304 304 305 307 309 311 313 315 323 330 331 334 338 339 341 340 341 343 341 343 342 341 342 339 340
287 291 290 289 293 297 302 304 302 304 306 306 310 314 316 329 332 333 334 335 336 337 339 340 338 337 339 342 344 342 343 344
287 290 290 289 291 296 300 302 304 304 304 306 308 312 315 317 330 330 331 333 335 336 338 340 338 338 341 343 346 348 346 346
286 292 295 291 288 293 299 302 304 304 305 306 307 309 312 315 323 330 329 331 334 335 336 338 335 335 339 344 346 344 347 349
293 289 284 293 280 289 295 298 301 303 304 305 308 309 310 314 316 329 331 331 330 333 332 334 332 333 333 334 335 341 344 345
Wind_Speed
4 4 7 6 4 1 6 9 4 5 2 3 2 3 9 6 12 14 14 10 10 14 14 16 18 18 19 17 16 15 15 14
5 7 4 5 5 2 6 5 3 1 9 4 2 4 3 19 14 13 11 9 13 15 14 14 17 17 17 16 15 14 14 14
3 7 3 4 4 1 4 5 5 2 7 4 4 5 12 17 16 15 10 8 9 14 14 13 15 16 16 16 14 13 13 13
5 7 5 3 5 2 3 5 8 1 5 2 3 5 8 13 14 14 13 11 7 10 9 13 15 14 14 14 14 13 11 11
5 10 4 5 4 2 3 4 4 2 2 0 9 8 8 11 11 14 11 9 8 7 8 8 9 13 14 13 12 11 11 10
6 6 6 4 4 1 3 6 2 3 1 2 4 11 13 13 13 14 13 8 8 10 7 6 6 10 10 12 12 11 9 9
8 9 4 3 3 1 2 3 4 8 8 5 12 13 14 14 11 11 10 8 6 9 8 7 6 7 8 10 10 11 9 9
6 5 5 3 1 2 5 8 4 7 10 11 12 9 11 13 12 12 10 9 6 7 8 8 6 6 5 5 3 4 5 5
6 6 4 2 3 0 2 1 2 5 7 8 13 9 9 7 13 13 13 8 7 7 8 10 8 7 4 3 3 3 5 5
7 4 3 3 3 2 4 5 5 7 9 9 12 8 8 9 9 12 10 9 9 4 4 3 6 6 7 6 5 5 5 7
5 7 3 4 2 2 1 4 7 8 6 7 9 10 7 8 7 8 11 9 8 7 6 6 5 4 6 7 6 6 6 6
7 6 1 4 3 4 3 3 7 8 8 6 7 6 6 4 7 8 10 11 11 10 8 6 5 6 5 4 7 6 6 7
12 5 4 7 9 7 6 3 7 6 7 9 9 6 8 11 9 10 9 12 14 13 13 12 10 8 6 7 6 6 6 7
5 11 6 8 11 6 8 10 8 8 6 6 9 11 9 8 7 8 13 15 15 13 14 13 13 9 8 8 7 8 7 6
2 10 9 11 3 10 9 8 8 8 8 7 6 7 9 10 9 9 7 7 12 11 16 13 12 9 10 11 9 8 7 8
6 7 11 6 4 1 3 8 11 9 8 8 8 11 7 7 7 11 8 6 4 6 5 6 1 0 3 3 3 1 5 3
6 5 7 9 7 10 9 6 8 8 8 8 9 8 5 6 5 5 7 8 9 7 5 4 2 2 2 2 3 4 7 5
3 5 3 5 6 9 9 6 9 12 10 10 5 7 8 7 7 7 7 8 9 11 9 8 6 3 3 3 2 2 3 5
7 5 1 3 3 5 5 5 5 6 7 5 9 9 8 7 10 9 10 12 12 10 9 7 6 3 1 1 1 1 3 3
8 6 4 2 5 4 6 8 7 9 8 10 10 7 8 9 8 9 15 11 10 9 7 6 7 4 4 2 2 2 1 1
Wind_Direction
118 140 177 206 213 60 322 302 327 329 153 264 337 65 153 157 144 137 135 142 149 150 144 141 133 130 128 128 127 126 125 125
113 228 244 197 197 303 328 299 150 240 285 308 186 162 159 135 134 128 126 127 151 147 145 142 134 130 128 128 129 129 127 125
164 247 201 256 267 312 319 283 276 164 269 245 45 77 122 131 137 132 120 108 144 149 145 142 136 131 129 130 130 129 129 127
194 250 164 208 234 346 293 286 303 125 318 301 36 83 132 130 130 127 127 125 128 137 137 140 137 132 131 132 134 133 133 131
187 234 264 178 195 189 249 281 275 236 221 286 48 77 107 106 101 100 94 105 112 100 122 118 132 136 136 133 134 135 138 135
209 192 250 186 176 78 215 271 356 4 313 356 109 101 91 86 92 100 103 105 129 149 114 107 120 125 133 137 136 133 137 140
203 175 221 182 128 269 302 302 38 17 14 60 108 101 97 96 94 106 104 89 91 138 131 105 110 133 123 136 129 135 145 152
193 185 210 202 116 18 38 3 22 77 37 56 78 94 111 123 128 124 126 118 124 130 148 137 119 128 114 138 135 137 148 150
204 199 240 241 3 316 39 3 321 129 110 73 78 79 92 122 134 139 146 151 156 144 161 161 146 148 147 154 151 149 160 150
235 187 203 266 328 46 181 189 123 125 136 110 87 78 95 95 114 136 138 140 157 120 143 149 150 158 160 167 165 170 187 174
196 212 201 302 190 114 46 170 117 123 127 121 115 113 103 113 111 124 127 137 154 151 167 180 173 164 175 180 181 178 189 182
207 212 227 170 218 170 254 183 142 133 151 144 137 138 140 146 144 147 144 147 153 164 170 181 191 183 182 194 190 187 188 196
232 170 218 149 258 203 179 189 157 158 148 158 181 190 184 177 168 165 164 156 160 173 173 187 194 199 187 189 198 201 200 188
244 184 217 158 242 173 178 155 165 172 182 177 180 202 200 223 218 196 173 174 170 176 174 189 196 192 192 178 197 210 199 187
226 206 185 178 132 180 173 157 182 180 185 200 231 236 212 192 193 197 197 198 181 178 187 196 193 194 211 178 206 233 199 175
177 203 202 151 168 95 175 170 192 202 195 205 225 241 219 208 219 179 195 183 212 211 210 141 178 8 256 155 152 265 265 197
216 221 138 207 165 220 239 182 182 209 212 207 222 245 253 159 217 198 185 199 212 207 208 181 126 201 241 169 166 203 225 201
204 225 128 157 199 226 219 209 189 197 214 217 215 224 250 172 184 212 214 214 225 235 230 216 204 175 174 189 206 178 195 210
167 121 66 111 291 201 236 224 218 216 207 213 205 214 232 227 206 177 209 215 217 230 225 205 172 149 105 332 53 150 211 208
130 103 172 74 259 247 210 214 224 229 198 208 211 219 219 224 248 198 221 188 200 210 187 184 176 162 169 189 204 244 180 190